Location: Newark
(45.2500°N, 7.5833°E)
Time: 10:29:50
(UTC+00:00)

A-11 Canister half - Pass Details

Date: 03 February 2020
Orbit: 1524 x 1684 km, 47.3° (Epoch: 19 February)

Event Time Altitude Azimuth Distance (km) Brightness Sun altitude
Rises 17:07:23 0° 268° (W) 4,673 13.4 -5.5°
Reaches altitude 10° 17:10:24 10° 270° (W) 3,695 12.5 -6.0°
Maximum altitude 17:19:45 79° 357° (N) 1,574 9.1 -7.6°
Enters shadow 17:29:21 10° 85° (E) 3,784 10.4 -9.2°
Drops below altitude 10° 17:29:22 10° 85° (E) 3,786 - -9.2°
Sets 17:32:30 0° 87° (E) 4,792 - -9.8°
